TimePDT,TemperatureF,Dew PointF,Humidity,Sea Level PressureIn,VisibilityMPH,Wind Direction,Wind SpeedMPH,Gust SpeedMPH,PrecipitationIn,Events,Conditions,WindDirDegrees,DateUTC
12:15 AM,60.1,53.1,78,30.07,10.0,WSW,8.1,-,N/A,,Clear,250,2013-08-11 07:15:00
12:35 AM,59.9,52.7,77,30.08,10.0,WSW,6.9,-,N/A,,Clear,250,2013-08-11 07:35:00
12:55 AM,59.2,52.2,78,30.08,10.0,WSW,6.9,-,N/A,,Clear,240,2013-08-11 07:55:00
1:15 AM,58.8,52.2,79,30.09,10.0,WSW,5.8,-,N/A,,Clear,250,2013-08-11 08:15:00
1:35 AM,58.1,51.8,80,30.09,10.0,SW,4.6,-,N/A,,Clear,230,2013-08-11 08:35:00
1:55 AM,57.0,51.3,81,30.09,10.0,Calm,Calm,-,N/A,,Clear,0,2013-08-11 08:55:00
2:15 AM,58.1,52.0,80,30.09,10.0,Calm,Calm,-,N/A,,Clear,0,2013-08-11 09:15:00
2:35 AM,57.7,51.8,81,30.09,10.0,Calm,Calm,-,N/A,,Clear,0,2013-08-11 09:35:00
2:55 AM,57.4,52.0,82,30.09,10.0,Calm,Calm,-,N/A,,Clear,0,2013-08-11 09:55:00
3:15 AM,56.1,51.1,83,30.10,10.0,ESE,5.8,-,N/A,,Clear,120,2013-08-11 10:15:00
3:35 AM,55.6,51.1,85,30.09,10.0,East,3.5,-,N/A,,Clear,100,2013-08-11 10:35:00
3:55 AM,55.0,50.5,85,30.10,10.0,Calm,Calm,-,N/A,,Clear,0,2013-08-11 10:55:00
4:15 AM,55.6,50.5,83,30.10,10.0,Calm,Calm,-,N/A,,Clear,0,2013-08-11 11:15:00
4:35 AM,55.4,50.5,84,30.10,10.0,Calm,Calm,-,N/A,,Clear,0,2013-08-11 11:35:00
4:55 AM,55.6,50.9,84,30.10,10.0,Calm,Calm,-,N/A,,Clear,0,2013-08-11 11:55:00
5:15 AM,54.1,50.4,87,30.11,10.0,Calm,Calm,-,N/A,,Clear,0,2013-08-11 12:15:00
5:35 AM,54.1,51.1,89,30.11,10.0,Calm,Calm,-,N/A,,Clear,0,2013-08-11 12:35:00
5:55 AM,51.8,48.2,88,30.11,10.0,Calm,Calm,-,N/A,,Clear,0,2013-08-11 12:55:00
6:15 AM,54.1,49.6,85,30.11,10.0,ESE,3.5,-,N/A,,Clear,110,2013-08-11 13:15:00
6:35 AM,52.2,48.4,87,30.12,10.0,ESE,5.8,-,N/A,,Clear,110,2013-08-11 13:35:00
6:55 AM,52.9,48.7,86,30.11,10.0,SE,5.8,-,N/A,,Clear,130,2013-08-11 13:55:00
7:15 AM,55.6,49.6,80,30.12,10.0,ESE,6.9,-,N/A,,Clear,120,2013-08-11 14:15:00
7:35 AM,55.9,49.8,80,30.12,10.0,ESE,6.9,-,N/A,,Clear,110,2013-08-11 14:35:00
7:55 AM,56.5,50.2,79,30.12,10.0,East,6.9,-,N/A,,Clear,80,2013-08-11 14:55:00
8:15 AM,58.1,50.2,75,30.12,10.0,East,6.9,-,N/A,,Clear,90,2013-08-11 15:15:00
8:35 AM,59.9,50.9,72,30.11,10.0,East,4.6,-,N/A,,Clear,90,2013-08-11 15:35:00
8:55 AM,61.5,51.1,69,30.11,10.0,Calm,Calm,-,N/A,,Clear,0,2013-08-11 15:55:00
9:15 AM,62.8,51.4,66,30.10,10.0,Calm,Calm,-,N/A,,Clear,0,2013-08-11 16:15:00
9:35 AM,65.3,51.8,62,30.10,10.0,Calm,Calm,-,N/A,,Clear,0,2013-08-11 16:35:00
9:55 AM,66.9,51.8,58,30.10,10.0,Calm,Calm,-,N/A,,Clear,0,2013-08-11 16:55:00
10:15 AM,69.1,51.4,53,30.10,10.0,NNW,4.6,-,N/A,,Clear,340,2013-08-11 17:15:00
10:35 AM,70.9,50.4,48,30.09,10.0,NW,4.6,-,N/A,,Clear,310,2013-08-11 17:35:00
10:55 AM,71.4,49.5,46,30.09,10.0,WNW,9.2,-,N/A,,Clear,290,2013-08-11 17:55:00
11:15 AM,73.4,49.8,43,30.08,10.0,West,9.2,-,N/A,,Clear,270,2013-08-11 18:15:00
11:35 AM,73.4,47.5,40,30.07,10.0,WNW,9.2,-,N/A,,Clear,300,2013-08-11 18:35:00
11:55 AM,75.4,47.3,37,30.06,10.0,West,6.9,-,N/A,,Clear,270,2013-08-11 18:55:00
12:15 PM,76.5,46.9,35,30.06,10.0,West,8.1,-,N/A,,Clear,280,2013-08-11 19:15:00
12:35 PM,78.1,47.8,34,30.06,10.0,WNW,10.4,-,N/A,,Clear,290,2013-08-11 19:35:00
12:55 PM,79.3,47.8,33,30.05,10.0,West,10.4,-,N/A,,Clear,280,2013-08-11 19:55:00
1:15 PM,79.5,46.4,31,30.05,10.0,West,6.9,-,N/A,,Clear,280,2013-08-11 20:15:00
1:35 PM,81.3,44.8,28,30.04,10.0,WNW,12.7,18.4,N/A,,Clear,300,2013-08-11 20:35:00
1:55 PM,81.7,44.4,27,30.03,10.0,WSW,8.1,-,N/A,,Clear,250,2013-08-11 20:55:00
2:15 PM,82.6,43.7,25,30.03,10.0,NW,6.9,-,N/A,,Clear,320,2013-08-11 21:15:00
2:35 PM,84.7,43.9,24,30.02,10.0,WNW,4.6,-,N/A,,Clear,300,2013-08-11 21:35:00
2:55 PM,84.0,43.3,24,30.01,10.0,WNW,9.2,-,N/A,,Clear,300,2013-08-11 21:55:00
3:15 PM,84.0,42.4,23,30.01,10.0,West,6.9,-,N/A,,Clear,270,2013-08-11 22:15:00
3:35 PM,82.4,42.1,24,30.00,10.0,WNW,9.2,-,N/A,,Clear,290,2013-08-11 22:35:00
3:55 PM,84.9,41.4,21,29.99,10.0,WNW,9.2,-,N/A,,Clear,290,2013-08-11 22:55:00
4:15 PM,84.9,40.6,21,29.98,10.0,WNW,9.2,-,N/A,,Clear,300,2013-08-11 23:15:00
4:35 PM,85.8,39.9,20,29.98,10.0,West,12.7,18.4,N/A,,Clear,260,2013-08-11 23:35:00
4:55 PM,83.3,38.8,21,29.98,10.0,West,12.7,-,N/A,,Clear,260,2013-08-11 23:55:00
5:15 PM,85.1,37.2,18,29.98,10.0,WNW,13.8,-,N/A,,Clear,290,2013-08-12 00:15:00
5:35 PM,85.1,36.7,18,29.97,10.0,West,12.7,17.3,N/A,,Clear,280,2013-08-12 00:35:00
5:55 PM,84.4,36.0,18,29.98,10.0,West,11.5,17.3,N/A,,Clear,270,2013-08-12 00:55:00
6:15 PM,83.5,37.2,19,29.97,10.0,West,12.7,17.3,N/A,,Clear,280,2013-08-12 01:15:00
6:35 PM,82.9,37.4,20,29.97,10.0,West,11.5,18.4,N/A,,Clear,270,2013-08-12 01:35:00
6:55 PM,81.9,37.6,21,29.98,10.0,West,10.4,-,N/A,,Clear,280,2013-08-12 01:55:00
7:15 PM,79.9,42.8,27,29.98,10.0,NW,9.2,-,N/A,,Clear,320,2013-08-12 02:15:00
7:35 PM,78.8,42.4,27,29.99,10.0,NNW,8.1,-,N/A,,Clear,340,2013-08-12 02:35:00
7:55 PM,76.5,42.1,29,29.99,10.0,North,5.8,-,N/A,,Clear,350,2013-08-12 02:55:00
8:15 PM,75.2,43.9,33,30.00,10.0,North,5.8,-,N/A,,Clear,350,2013-08-12 03:15:00
8:35 PM,73.8,46.0,37,30.01,10.0,Calm,Calm,-,N/A,,Clear,0,2013-08-12 03:35:00
8:55 PM,74.1,46.2,37,30.01,10.0,Calm,Calm,-,N/A,,Clear,0,2013-08-12 03:55:00